PEGASUS DEB, 39321

Orbit data source: Space-Track

PEGASUS DEB, 39321 is space debris in LEO originally from a launch on Thu, 19 May 1994 UTC launched from the Air Force Western Test Range (AFWTR). Debris objects in space refer to the collection of defunct objects orbiting the Earth. Examples of debris include non-operational satellites, rocket bodies, and fragments generated from explosions, collisions, or faulty payload assembly.

Loading next visibility...
Identifier
39321, 1994-029AFG
Orbit
LEO
Country
Flag of USUS
Related business
Manufacturer
Unknown
Mission
Spacecraft
Bus & Motor
Unknown
Mass
Unknown
Launch date (UTC)
1994-05-19 (32 years ago)
Launch vehicle
Unknown
Launch site
Air Force Western Test Range (AFWTR)
Object type
Payload
Rocket body
Debris
Shape & HBR
Unknown shape, 0.1 m
Radar Cross Section
Small (<0.1 m²)

Expand to show TLE details & history
Last TLE update: 22 hours ago

TLE from 22 hours ago
0 PEGASUS DEB
1 39321U 94029AFG 26235.33594380  .00000523  00000-0  17458-3 0  9993
2 39321  82.2853  96.0816 0432645 338.4551  19.8874 13.94327566663605
Epoch: 2026-08-23T08:03Z
TLE epoch observation values (Epoch: 2026-08-23T08:03:45.544Z)
Latitude
0.00004°
Longitude
3.50837°
Altitude
621.392 km
Speed
7.699 km/s
True Right ascension
06h 24m 19s
True Declination
0° 00' 00"
Sunlit
Object was in daylight at epoch
Visualization orbit readout
Latitude
Unknown
Longitude
Unknown
Altitude
Unknown
Speed
Unknown
Apparent Right ascension
Unknown
Apparent Declination
Unknown
Sunlit
N/A
Visualization observer readout
Local Sidereal Time
21:10:27
Azimuth
Unknown
Elevation
Unknown
Doppler factor
Unknown
Orbital elements
Apogee altitude
1,225.99 km
Perigee altitude
595.299 km
Semi-major axis
7,288.782 km
Eccentricity
0.04326
Inclination
82.2853°
RAAN
96.0816°
Arg. of periapsis
338.4551°
True anomaly
21.66376°
Mean anomaly
19.8874°
Eccentric anomaly
20.7663°
Mean motion
3.48787 °/min
Orbital period
103.21 mins
BSTAR
0.00017458
Loading maneuver chart data...
Computing Atmospheric mass density...
Loading historical data...
Loading historical data...
Loading historical data...
Loading historical data...
Loading historical data...
Loading historical data...
Loading historical data...

Documentation

Showing up to 5 results
|